FLOCK 4P-8 (44815 NORAD) Tracking and Keplerian Element Data

This shows tracking and keplerian element data for the satellite.

Feedback or suggestion? Click here.




ElementValue
Catalog44815
NameFLOCK 4P-8
Epoch Orbit1937
Epoch Day93.74439092
Epoch Year2020
RAAN155.2355
Inclination97.5043
Eccentricity0.0012599
Argument of Perigee148.4582
Mean Anonmoly211.741
Mean Motion15.19805489
Decay Rate7.81E-06
L11 44815U 19081M 20093.74439092 .00000781 00000-0 39645-4 0 9990
L22 44815 97.5043 155.2355 0012599 148.4582 211.7410 15.19805489 19372

Live tracking and technical data element details for FLOCK 4P-8 (NORAD 44815). FLOCK 4P-8 can be tracked NOW for your location showing map with azimuth and elevation plus other details from your city location.

Track the satellite on the map from your city or location and see movement details for azimuth, elevation, latitude, longitude, range, height, and movement on the map or in text.







IsCatalogInMostPopularTable: catalog: 44815, numindb: 43
Update: records affected: 1



GetName: 44815 FLOCK 4P-8

Hit Count: updated at: Fri, 10 Apr 2020 18:57:35 GMT